Regional Weather Roundup
Issued by NWS

Home | Current Version | Previous Version | Graphics & Text | Print | Product List | Glossary On
Versions: 1 2 3 4 5 6 7 8 9 10 11 12 13 14 15 16 17 18 19 20 21 22 23 24 25 26 27 28 29 30 31 32 33 34 35 36 37 38 39 40 41 42 43 44 45 46 47 48 49 50
000
ASUS43 KFSD 301802
RWRSD

WEATHER ROUNDUP FOR SOUTH DAKOTA
NATIONAL WEATHER SERVICE SIOUX FALLS SD
100 PM CDT THU OCT 30 2014

NOTE: "FAIR" INDICATES FEW OR NO CLOUDS BELOW 12,000 FEET WITH NO
SIGNIFICANT WEATHER AND/OR OBSTRUCTIONS TO VISIBILITY.


SDZ001>005-009-010-012>017-301900-
NORTHWEST AND NORTH CENTRAL SOUTH DAKOTA

CITY           SKY/WX    TMP DP  RH WIND       PRES   REMARKS
BUFFALO          N/A     38  31  76 N8        30.30R
FAITH            N/A     38  32  79 N15       30.36R
MOBRIDGE       MOSUNNY   42  32  67 N17       30.32R
$$

SDZ012>016-024>037-041>051-057-063-072>074-301900-
SOUTHWEST AND SOUTH CENTRAL SOUTH DAKOTA

CITY           SKY/WX    TMP DP  RH WIND       PRES   REMARKS
RAPID CTY ARPT SUNNY     53  35  50 N15G24    30.33R
PIERRE         MOSUNNY   44  34  67 N20G30    30.30R
CUSTER         PTSUNNY   53  27  36 N10G16    30.33R
ELLSWORTH AFB  SUNNY     51  35  53 NE13      30.33R
PHILIP         MOSUNNY   49  34  56 N15       30.34R
PINE RIDGE     SUNNY     56  34  43 VRB7      30.32R
SPEARFISH      FAIR      52  32  46 N12       30.35R
WINNER         FAIR      53  34  48 N25G32    30.27R
$$

SDZ004>011-016>023-039-040-301900-
NORTHEAST SOUTH DAKOTA

CITY           SKY/WX    TMP DP  RH WIND       PRES   REMARKS
ABERDEEN       CLOUDY    42  34  73 N17G29    30.28R
WATERTOWN      CLOUDY    41  39  93 N16       30.18R
SISSETON         N/A     42  37  82 N22G30    30.22R
$$

SDZ017-020-022-023-036>040-048>070-301900-
SOUTHEAST SOUTH DAKOTA

CITY           SKY/WX    TMP DP  RH WIND       PRES   REMARKS
SIOUX FALLS    PTSUNNY   54  42  64 NW18G29   30.12R
HURON          CLOUDY    42  37  82 N18G28    30.24R
CHAMBERLAIN    PTSUNNY   48  35  60 N18G26    30.26R
MITCHELL       CLOUDY    45  38  76 N21G26    30.22R
YANKTON        SUNNY    N/A N/A N/A NW23G30   30.16R
$$

ABBREVIATIONS USED IN REMARKS
   TC - TEMPERATURE IN CELSIUS
  WCI - WIND CHILL INDEX
   HX - HEAT INDEX
  VSB - VISIBILITY




USA.gov is the U.S. government's official web portal to all federal, state and local government web resources and services.